DW4827 Weather Reports


time (UTC)temp
C
wind
direction
speed
KPH
gust
KPH
rain 1hr
cm
rain 24hr
cm
rain mn
cm
humidity
%
barometer
mb
20260507032007 13 335 0.0 0.0 0.00 0.00 0.00 90 1018.8
20260507030007 13 335 0.0 1.6 0.00 0.00 0.00 90 1018.7
20260507025007 13 335 0.0 3.2 0.00 0.00 0.00 90 1018.7
20260507024007 13 335 0.0 0.0 0.00 0.00 0.00 89 1018.7
20260507023007 13 335 0.0 3.2 0.00 0.00 0.00 89 1018.6
20260507022007 13 335 0.0 3.2 0.00 0.00 0.00 89 1018.6
20260507021007 13 335 0.0 3.2 0.00 0.00 0.00 89 1018.6
20260507020007 13 338 0.0 3.2 0.00 0.00 0.00 89 1018.6
20260507015008 13 337 0.0 1.6 0.00 0.00 0.00 88 1018.6
20260507013008 13 337 1.6 4.8 0.00 0.00 0.00 88 1018.7
20260507012007 13 337 1.6 3.2 0.00 0.00 0.00 87 1018.7
20260507011007 13 337 0.0 3.2 0.00 0.00 0.00 88 1018.7
20260507010007 13 337 3.2 4.8 0.00 0.00 0.00 88 1018.9
20260507004007 13 42 0.0 8.0 0.00 0.00 0.00 88 1018.9
20260507003007 13 345 0.0 4.8 0.00 0.00 0.00 89 1019.0
20260507002008 13 340 0.0 4.8 0.00 0.00 0.00 90 1019.0
20260507000008 13 316 4.8 8.0 0.00 0.00 0.00 90 1019.0
20260506235008 13 10 3.2 9.7 0.00 0.00 0.00 90 1018.8
20260506233007 13 319 6.4 8.0 0.00 0.00 0.00 89 1018.7
20260506232007 13 304 6.4 11.3 0.00 0.00 0.00 87 1018.7
20260506231006 13 329 3.2 14.5 0.00 0.00 0.00 86 1018.7
20260506230007 14 301 3.2 11.3 0.00 0.00 0.00 84 1018.7
20260506224006 15 327 1.6 11.3 0.00 0.00 0.00 81 1018.7
20260506222006 15 297 4.8 9.7 0.00 0.00 0.00 79 1018.8
20260506221007 15 286 0.0 11.3 0.00 0.00 0.00 79 1018.7
20260506220006 16 267 4.8 11.3 0.00 0.00 0.00 80 1018.6
20260506215007 16 328 6.4 11.3 0.00 0.00 0.00 80 1018.6
20260506214007 16 317 1.6 14.5 0.00 0.00 0.00 79 1018.6
20260506213007 16 308 6.4 16.1 0.00 0.00 0.00 80 1018.6
20260506212007 15 335 9.7 20.9 0.00 0.00 0.00 81 1018.6
20260506210006 15 285 6.4 16.1 0.00 0.00 0.00 81 1018.5
20260506205007 15 304 8.0 20.9 0.00 0.00 0.00 82 1018.5
20260506204007 15 317 8.0 19.3 0.00 0.00 0.00 82 1018.5
20260506203006 15 350 8.0 19.3 0.00 0.00 0.00 82 1018.4
20260506201006 15 296 8.0 20.9 0.00 0.00 0.00 82 1018.3
20260506195006 15 330 8.0 11.3 0.00 0.00 0.00 82 1018.1
20260506193007 15 335 4.8 19.3 0.00 0.00 0.00 84 1018.3
20260506192006 15 304 8.0 19.3 0.00 0.00 0.00 83 1018.2
20260506191006 15 297 4.8 11.3 0.00 0.00 0.00 83 1018.4
20260506190007 15 310 3.2 11.3 0.00 0.00 0.00 82 1018.2
20260506185006 15 319 3.2 9.7 0.00 0.00 0.00 83 1018.2
20260506184006 15 335 4.8 8.0 0.00 0.00 0.00 84 1018.1
20260506183006 15 285 4.8 8.0 0.00 0.00 0.00 84 1018.0
20260506182006 15 287 3.2 9.7 0.00 0.00 0.00 85 1018.0
20260506180006 15 308 3.2 9.7 0.00 0.00 0.00 86 1018.3
20260506175005 15 319 3.2 11.3 0.00 0.00 0.00 87 1018.3
20260506174007 14 312 6.4 11.3 0.00 0.00 0.00 86 1018.3
20260506173006 14 292 3.2 8.0 0.00 0.00 0.00 87 1018.0
20260506171006 14 342 3.2 8.0 0.00 0.00 0.00 88 1018.0
20260506170005 14 284 3.2 4.8 0.00 0.00 0.00 88 1017.6
20260506164005 13 11 1.6 3.2 0.00 0.00 0.00 89 1017.6
20260506163006 13 11 0.0 3.2 0.00 0.00 0.00 90 1017.6
20260506162006 13 11 1.6 4.8 0.00 0.00 0.00 91 1017.8
20260506161006 13 11 1.6 4.8 0.00 0.00 0.00 91 1017.8
20260506153006 12 11 1.6 4.8 0.00 0.00 0.00 92 1017.6
20260506152006 12 11 1.6 3.2 0.00 0.00 0.00 93 1017.6
20260506151005 12 11 0.0 3.2 0.00 0.00 0.00 93 1017.6
20260506150006 12 11 0.0 3.2 0.00 0.00 0.00 93 1017.6
20260506144006 12 11 0.0 0.0 0.00 0.00 0.00 94 1017.5
20260506143006 12 13 0.0 0.0 0.00 0.00 0.00 94 1017.5
20260506142007 12 13 0.0 3.2 0.00 0.00 0.00 94 1017.8
20260506141007 12 13 0.0 3.2 0.00 0.00 0.00 94 1017.1
20260506140006 12 13 1.6 4.8 0.00 0.00 0.00 94 1017.1
20260506135006 12 73 0.0 1.6 0.00 0.00 0.00 95 1017.1
20260506134005 12 73 0.0 0.0 0.00 0.00 0.00 95 1017.1
20260506133006 12 73 0.0 0.0 0.00 0.00 0.00 95 1017.1
20260506132006 11 34 0.0 0.0 0.00 0.00 0.00 95 1017.2
20260506131005 11 34 0.0 0.0 0.00 0.00 0.00 95 1017.1
20260506130006 11 34 0.0 0.0 0.00 0.00 0.00 95 1016.9
20260506125006 11 34 0.0 0.0 0.00 0.00 0.00 95 1016.9
20260506124005 11 34 0.0 0.0 0.00 0.00 0.00 95 1016.9
20260506123006 11 34 0.0 0.0 0.00 0.00 0.00 95 1016.9
20260506122007 11 34 0.0 0.0 0.00 0.00 0.00 95 1016.7
20260506121005 11 34 0.0 0.0 0.00 0.00 0.00 95 1016.7
20260506120006 11 34 0.0 0.0 0.00 0.00 0.00 95 1016.6
20260506115006 11 34 0.0 0.0 0.00 0.00 0.00 95 1016.6
20260506114005 11 34 0.0 0.0 0.00 0.00 0.00 95 1016.6
20260506113006 11 34 0.0 0.0 0.00 0.00 0.00 95 1016.5
20260506112005 11 34 0.0 0.0 0.00 0.00 0.00 95 1016.5
20260506111005 11 34 0.0 0.0 0.00 0.00 0.00 95 1016.5
20260506110005 11 34 0.0 0.0 0.00 0.00 0.00 95 1016.4
20260506102006 11 34 0.0 0.0 0.00 0.00 0.00 95 1015.8
20260506101005 11 34 0.0 0.0 0.00 0.00 0.00 95 1015.8
20260506100006 11 34 0.0 0.0 0.00 0.00 0.00 95 1015.7
20260506095006 10 34 0.0 3.2 0.00 0.00 0.00 95 1015.7
20260506094005 10 34 0.0 0.0 0.00 0.00 0.00 95 1015.6
20260506093005 10 34 0.0 0.0 0.00 0.00 0.00 95 1015.5
20260506092005 10 34 0.0 0.0 0.00 0.00 0.00 95 1015.5
20260506090006 10 34 0.0 0.0 0.00 0.00 0.00 95 1015.3
20260506085005 10 34 0.0 0.0 0.00 0.00 0.00 95 1015.3
20260506084005 11 34 0.0 3.2 0.00 0.00 0.00 95 1015.4
20260506083005 11 103 0.0 0.0 0.00 0.00 0.00 95 1015.4
20260506082006 11 103 0.0 0.0 0.00 0.00 0.00 95 1015.4
20260506073004 10 103 0.0 0.0 0.00 0.00 0.00 95 1015.3
20260506072005 10 103 0.0 0.0 0.00 0.00 0.00 95 1015.2
20260506071005 10 103 0.0 0.0 0.00 0.00 0.00 94 1015.2
20260506062005 11 103 0.0 0.0 0.00 0.00 0.00 94 1014.5
20260506061006 11 103 0.0 0.0 0.00 0.00 0.00 94 1014.3
20260506051005 12 81 0.0 0.0 0.00 0.00 0.00 93 1013.8
20260506045005 12 81 0.0 0.0 0.00 0.00 0.00 92 1013.8
20260506044004 12 81 0.0 0.0 0.00 0.00 0.00 91 1013.8
20260506042005 12 318 0.0 0.0 0.00 0.00 0.00 90 1013.8
20260506041004 13 318 0.0 0.0 0.00 0.00 0.00 90 1013.8
20260506040004 13 318 0.0 0.0 0.00 0.00 0.00 89 1013.8
20260506035007 13 318 0.0 0.0 0.00 0.00 0.00 89 1013.6
20260506034007 14 318 0.0 0.0 0.00 0.00 0.00 88 1013.5
20260506033008 15 318 0.0 0.0 0.00 0.00 0.00 86 1013.2